When you browse on this site, cookies collect data to enhance your experience and personalize the content and advertising you see.
Visit our Privacy Policy to learn more. By continuing to use the site, you agree to this use of cookies and data.
  • In Hungary
  • List of Countries
  • For 7 days
  • Water Temperature
  • Satellite Maps
  • Weather Map
  • News
  • Weather Widgets
  • user-avatar
    Login

    Hourly Weather Uige

    Today, 21 April, Sunday

    Time Temperature Precipitation Wind Pressure Humidity
    00:00 +24°C° 0.2 mm 1 mps 691 mmHg 95%
    01:00 +23°C° 0.2 mm 1 mps 691 mmHg 98%
    02:00 +23°C° 0.1 mm 1 mps 690 mmHg 98%
    03:00 +23°C° 0.1 mm 1 mps 690 mmHg 98%
    04:00 +23°C° 0.1 mm 1 mps 690 mmHg 98%
    05:00 +24°C° 0.4 mm 1 mps 690 mmHg 97%
    06:00 +24°C° 0.4 mm 1 mps 691 mmHg 97%
    07:00 +24°C° 0.4 mm 1 mps 691 mmHg 96%
    08:00 +25°C° 0.4 mm 1 mps 691 mmHg 88%
    09:00 +27°C° 0.4 mm 1 mps 692 mmHg 81%
    10:00 +29°C° 0.4 mm 2 mps 692 mmHg 73%
    11:00 +29°C° 1 mm 1 mps 692 mmHg 72%
    12:00 +30°C° 1 mm 1 mps 691 mmHg 71%
    13:00 +30°C° 1 mm 1 mps 690 mmHg 71%
    14:00 +30°C° 0.5 mm 1 mps 690 mmHg 70%
    15:00 +30°C° 0.5 mm 1 mps 689 mmHg 69%
    16:00 +30°C° 0.5 mm 1 mps 689 mmHg 69%
    17:00 +28°C° 0.4 mm 1 mps 689 mmHg 77%
    18:00 +26°C° 0.4 mm 1 mps 689 mmHg 85%
    19:00 +25°C° 0.4 mm 1 mps 689 mmHg 93%
    20:00 +22°C° 1.7 mm 0 mps 690 mmHg 94%
    21:00 +22°C° 1.7 mm 0 mps 690 mmHg 95%
    22:00 +21°C° 1.7 mm 0 mps 690 mmHg 97%
    23:00 +21°C° 0 mm 0 mps 690 mmHg 97%

    Tomorrow, 22 April, Monday

    Time Temperature Precipitation Wind Pressure Humidity
    00:00 +21°C° 0 mm 0 mps 690 mmHg 97%
    01:00 +23°C° 0 mm 1 mps 690 mmHg 97%
    02:00 +23°C° 0 mm 1 mps 690 mmHg 97%
    03:00 +23°C° 0 mm 1 mps 689 mmHg 98%
    04:00 +23°C° 0 mm 1 mps 689 mmHg 98%
    05:00 +23°C° 0 mm 1 mps 690 mmHg 97%
    06:00 +21°C° 0 mm 0 mps 690 mmHg 97%
    07:00 +21°C° 0 mm 0 mps 690 mmHg 96%
    08:00 +23°C° 0 mm 0 mps 691 mmHg 90%
    09:00 +24°C° 0 mm 0 mps 691 mmHg 84%
    10:00 +26°C° 0 mm 0 mps 692 mmHg 79%
    11:00 +27°C° 0.6 mm 0 mps 691 mmHg 74%
    12:00 +28°C° 0.6 mm 0 mps 691 mmHg 69%
    13:00 +29°C° 0.6 mm 0 mps 690 mmHg 64%
    14:00 +29°C° 0 mm 0 mps 690 mmHg 65%
    15:00 +30°C° 0 mm 1 mps 689 mmHg 66%
    16:00 +30°C° 0 mm 1 mps 688 mmHg 67%
    17:00 +28°C° 0.6 mm 1 mps 689 mmHg 75%
    18:00 +26°C° 0.6 mm 1 mps 689 mmHg 82%
    19:00 +23°C° 0.6 mm 0 mps 689 mmHg 89%
    20:00 +22°C° 1.2 mm 0 mps 690 mmHg 90%
    21:00 +22°C° 1.2 mm 0 mps 690 mmHg 92%
    22:00 +22°C° 1.2 mm 0 mps 690 mmHg 93%
    23:00 +22°C° 0.3 mm 0 mps 690 mmHg 94%

    Day after tomorrow, 23 April, Tuesday

    Time Temperature Precipitation Wind Pressure Humidity
    00:00 +21°C° 0.3 mm 0 mps 690 mmHg 95%
    01:00 +21°C° 0.3 mm 0 mps 690 mmHg 96%
    02:00 +23°C° 0.2 mm 1 mps 689 mmHg 96%
    03:00 +23°C° 0.2 mm 1 mps 689 mmHg 97%
    04:00 +23°C° 0.2 mm 1 mps 689 mmHg 98%
    05:00 +23°C° 0 mm 1 mps 689 mmHg 97%
    06:00 +23°C° 0 mm 1 mps 690 mmHg 97%
    07:00 +23°C° 0 mm 1 mps 690 mmHg 96%
    08:00 +25°C° 0.1 mm 1 mps 691 mmHg 90%
    09:00 +26°C° 0.1 mm 1 mps 691 mmHg 84%
    10:00 +28°C° 0.1 mm 1 mps 692 mmHg 78%
    11:00 +29°C° 0.8 mm 1 mps 691 mmHg 75%
    12:00 +28°C° 0.8 mm 0 mps 691 mmHg 71%
    13:00 +29°C° 0.8 mm 0 mps 690 mmHg 68%
    14:00 +29°C° 0.6 mm 0 mps 690 mmHg 69%
    15:00 +29°C° 0.6 mm 0 mps 689 mmHg 70%
    16:00 +28°C° 0.6 mm 0 mps 689 mmHg 71%
    17:00 +26°C° 0.5 mm 0 mps 689 mmHg 78%
    18:00 +24°C° 0.5 mm 0 mps 690 mmHg 84%
    19:00 +23°C° 0.5 mm 0 mps 690 mmHg 91%
    20:00 +22°C° 0.2 mm 0 mps 690 mmHg 93%
    21:00 +22°C° 0.2 mm 0 mps 691 mmHg 95%
    22:00 +21°C° 0.2 mm 0 mps 692 mmHg 97%
    23:00 +23°C° 0.7 mm 1 mps 691 mmHg 97%

    24 April, Wednesday

    Time Temperature Precipitation Wind Pressure Humidity
    00:00 +23°C° 0.7 mm 1 mps 691 mmHg 98%
    01:00 +23°C° 0.7 mm 1 mps 691 mmHg 98%
    02:00 +23°C° 0 mm 1 mps 690 mmHg 98%
    03:00 +23°C° 0 mm 1 mps 690 mmHg 97%
    04:00 +23°C° 0 mm 1 mps 690 mmHg 97%
    05:00 +23°C° 0 mm 1 mps 690 mmHg 96%
    06:00 +23°C° 0 mm 1 mps 690 mmHg 95%
    07:00 +23°C° 0 mm 1 mps 691 mmHg 94%
    08:00 +25°C° 0 mm 1 mps 691 mmHg 84%
    09:00 +27°C° 0 mm 1 mps 692 mmHg 74%
    10:00 +30°C° 0 mm 1 mps 692 mmHg 64%
    11:00 +31°C° 0 mm 1 mps 692 mmHg 56%
    12:00 +33°C° 0 mm 1 mps 691 mmHg 48%
    13:00 +35°C° 0 mm 1 mps 691 mmHg 40%
    14:00 +35°C° 0 mm 1 mps 690 mmHg 43%
    15:00 +32°C° 0 mm 0 mps 690 mmHg 46%
    16:00 +31°C° 0 mm 0 mps 689 mmHg 49%
    17:00 +29°C° 0.4 mm 0 mps 690 mmHg 59%
    18:00 +27°C° 0.4 mm 0 mps 690 mmHg 69%
    19:00 +24°C° 0.4 mm 0 mps 690 mmHg 79%
    20:00 +24°C° 2 mm 0 mps 691 mmHg 83%
    21:00 +25°C° 2 mm 1 mps 691 mmHg 87%
    22:00 +25°C° 2 mm 1 mps 692 mmHg 91%
    23:00 +24°C° 0.1 mm 1 mps 691 mmHg 92%

    25 April, Thursday

    Time Temperature Precipitation Wind Pressure Humidity
    00:00 +24°C° 0.1 mm 1 mps 691 mmHg 94%
    01:00 +23°C° 0.1 mm 1 mps 691 mmHg 95%
    02:00 +23°C° 0 mm 1 mps 690 mmHg 96%
    03:00 +21°C° 0 mm 0 mps 690 mmHg 96%
    04:00 +21°C° 0 mm 0 mps 690 mmHg 97%
    05:00 +21°C° 0.8 mm 0 mps 691 mmHg 96%
    06:00 +24°C° 0.8 mm 1 mps 691 mmHg 94%
    07:00 +24°C° 0.8 mm 1 mps 692 mmHg 93%
    08:00 +25°C° 0.1 mm 1 mps 692 mmHg 87%
    09:00 +27°C° 0.1 mm 1 mps 693 mmHg 82%
    10:00 +29°C° 0.1 mm 1 mps 693 mmHg 76%
    11:00 +30°C° 0.3 mm 1 mps 692 mmHg 68%
    12:00 +30°C° 0.3 mm 0 mps 692 mmHg 59%
    13:00 +32°C° 0.3 mm 0 mps 691 mmHg 51%
    14:00 +31°C° 0.4 mm 0 mps 690 mmHg 53%
    15:00 +31°C° 0.4 mm 0 mps 690 mmHg 55%
    16:00 +30°C° 0.4 mm 0 mps 689 mmHg 57%
    17:00 +28°C° 0 mm 0 mps 690 mmHg 61%
    18:00 +27°C° 0 mm 0 mps 690 mmHg 66%
    19:00 +25°C° 0 mm 0 mps 690 mmHg 71%
    20:00 +24°C° 0.3 mm 0 mps 690 mmHg 76%
    21:00 +23°C° 0.3 mm 0 mps 691 mmHg 82%
    22:00 +22°C° 0.3 mm 0 mps 691 mmHg 87%
    23:00 +22°C° 0 mm 0 mps 690 mmHg 88%

    26 April, Friday

    Time Temperature Precipitation Wind Pressure Humidity
    00:00 +22°C° 0 mm 0 mps 690 mmHg 90%
    01:00 +24°C° 0 mm 1 mps 690 mmHg 91%
    02:00 +23°C° 0 mm 1 mps 690 mmHg 92%
    03:00 +23°C° 0 mm 1 mps 690 mmHg 92%
    04:00 +23°C° 0 mm 1 mps 690 mmHg 92%
    05:00 +23°C° 0 mm 1 mps 690 mmHg 90%
    06:00 +24°C° 0 mm 1 mps 691 mmHg 88%
    07:00 +24°C° 0 mm 1 mps 691 mmHg 86%
    08:00 +27°C° 0.1 mm 1 mps 691 mmHg 76%
    09:00 +29°C° 0.1 mm 1 mps 692 mmHg 66%
    10:00 +31°C° 0.1 mm 2 mps 692 mmHg 56%
    11:00 +33°C° 0.2 mm 1 mps 692 mmHg 51%
    12:00 +35°C° 0.2 mm 1 mps 691 mmHg 46%
    13:00 +35°C° 0.2 mm 0 mps 691 mmHg 41%
    14:00 +33°C° 0 mm 0 mps 690 mmHg 47%
    15:00 +31°C° 0 mm 0 mps 689 mmHg 52%
    16:00 +29°C° 0 mm 0 mps 689 mmHg 57%
    17:00 +30°C° 1.2 mm 1 mps 689 mmHg 66%
    18:00 +28°C° 1.2 mm 1 mps 689 mmHg 75%
    19:00 +26°C° 1.2 mm 1 mps 690 mmHg 84%
    20:00 +26°C° 0.8 mm 1 mps 690 mmHg 86%
    21:00 +25°C° 0.8 mm 1 mps 690 mmHg 88%
    22:00 +23°C° 0.8 mm 0 mps 690 mmHg 90%
    23:00 +22°C° 1.1 mm 0 mps 690 mmHg 91%
    Show more